STARLINK-11168, 60183

Orbit data source: Space-Track

STARLINK-11168, 60183 is a payload satellite owned by SpaceX/Seattle (US) in LEO that was launched on Wed, 03 Jul 2024 UTC via an FALCON 9 launch vehicle from the Air Force Eastern Test Range (AFETR). Payload-class satellites include a variety of spacecraft equipped with specific instruments for various scientific and technological missions. These include communications satellites like Starlink; space stations such as the ISS; scientific satellites like the Hubble; Earth observation satellites from companies like Planet Labs, Umbra, and HawkEye 360; GPS; miniature CubeSats for education and research; and military/defense satellites.

Loading next visibility...
Identifier
60183, 2024-124A
Orbit
LEO
Last TLE update
15 hours ago
Origin
Manufacturer
SpaceX/Seattle
Mission
Operational Commercial Communications
Bus & Motor
STARLINK V2M, Unknown motor
Mass
730 kg wet, ~700 kg dry
Launch date (UTC)
2024-07-03 (1 year ago)
Launch vehicle
FALCON 9
Launch site
Air Force Eastern Test Range (AFETR)
Object type
Payload
Rocket body
Debris
Shape & HBR
Box + 2 Pan, 14.5 m
Radar Cross Section
36.964 m², Large (>1 m²)

Expand to show TLE details & history

TLE from 15 hours ago
0 STARLINK-11168
1 60183U 24124A   25199.37667652 -.00000040  00000-0  45294-5 0  9993
2 60183  53.1583 236.2558 0001107  85.4559 274.6585 15.69710177 60929
Epoch: 2025-07-18T09:02Z
TLE epoch observation values (Epoch: 2025-07-18T09:02:24.851Z)
Latitude
-0.00004°
Longitude
164.22321°
Altitude
360.581 km
Speed
7.694 km/s
True Right ascension
15h 45m 01s
True Declination
0° 00' 00"
Sunlit
Object was in full shadow at epoch
Visualization orbit readout
Latitude
-19.84756°
Longitude
-3.18068°
Altitude
365.584 km
Speed
7.69 km/s
Apparent Right ascension
02h 49m 04s
Apparent Declination
-33° 17' 20"
Sunlit
Object is in daylight
Visualization observer readout
Local Sidereal Time
12:27:21
Azimuth
271.902° WNW
Elevation
-60.998°
Doppler factor
1
Orbital elements
Apogee altitude
360.733 km
Perigee altitude
359.241 km
Semi-major axis
6,738.124 km
Eccentricity
0.00011
Inclination
53.1583°
RAAN
236.2558°
Arg. of periapsis
85.4559°
True anomaly
274.64586°
Mean anomaly
274.6585°
Eccentric anomaly
274.65218°
Mean motion
3.92405 °/min
Orbital period
91.74 mins
BSTAR
0.0000045294
Loading maneuver chart data...
Loading SW <> Apogee altitude chart data...
Loading historical data...
Loading historical data...
Loading historical data...
Loading historical data...
Loading historical data...
Loading historical data...
Loading historical data...
|